WetterOnline ( https://www.wetteronline.de )

Wetter aktuell Saint-Maurice

Aktuelles Wetter: Saint-Yan (242m)

6-stündlich | Neueste Meldungen
Ortszeit Temperatur Wetter
Mi, 22.05. 8:00 13.4° C bedeckt
Mi, 22.05. 2:00 13.4° C bedeckt
Di, 21.05. 20:00 16.7° C bewölkt
Di, 21.05. 14:00 17.8° C bedeckt
Di, 21.05. 8:00 12.1° C -
Di, 21.05. 2:00 13.3° C bedeckt
Mo, 20.05. 20:00 18.4° C -
Mo, 20.05. 14:00 18.9° C wolkig
Ortszeit Temperatur Wetter
Mi, 22.05. 9:00 14.0° C bedeckt
Mi, 22.05. 8:00 13.4° C bedeckt
Mi, 22.05. 7:00 13.3° C bedeckt
Mi, 22.05. 6:00 13.3° C bedeckt
Mi, 22.05. 5:00 13.3° C bedeckt
Mi, 22.05. 4:00 13.5° C bedeckt
Mi, 22.05. 3:00 13.3° C bedeckt
Ortszeit Relative Feuchte Sichtweite
Mi, 22.05. 8:00 83% 24 km
Mi, 22.05. 2:00 81% 40 km
Di, 21.05. 20:00 75% 50 km
Di, 21.05. 14:00 59% 29 km
Di, 21.05. 8:00 88% 35 km
Di, 21.05. 2:00 88% 60 km
Mo, 20.05. 20:00 66% 50 km
Mo, 20.05. 14:00 74% 28 km
Ortszeit Relative Feuchte Sichtweite
Mi, 22.05. 9:00 82% 24 km
Mi, 22.05. 8:00 83% 24 km
Mi, 22.05. 7:00 82% 19 km
Mi, 22.05. 6:00 82% 26 km
Mi, 22.05. 5:00 80% 35 km
Mi, 22.05. 4:00 79% 45 km
Mi, 22.05. 3:00 81% 40 km
Ortszeit Niederschlagsmenge Niederschlagsart
Mi, 22.05. 8:00 0.4 l/m2 in 12 Std. -
Mi, 22.05. 2:00 0.4 l/m2 in 6 Std. -
Di, 21.05. 20:00 2 l/m2 in 12 Std. -
Di, 21.05. 14:00 0.0 l/m2 in 6 Std. -
Di, 21.05. 8:00 0.2 l/m2 in 12 Std. -
Di, 21.05. 2:00 0.1 l/m2 in 6 Std. -
Mo, 20.05. 20:00 0.1 l/m2 in 12 Std. -
Mo, 20.05. 14:00 0.0 l/m2 in 6 Std. -
Ortszeit Niederschlagsmenge Niederschlagsart
Mi, 22.05. 9:00 0.0 l/m2 in 1 Std. -
Mi, 22.05. 8:00 keine Meldung -
Mi, 22.05. 7:00 0.0 l/m2 in 1 Std. -
Mi, 22.05. 6:00 0.0 l/m2 in 1 Std. -
Mi, 22.05. 5:00 keine Meldung -
Mi, 22.05. 4:00 0.0 l/m2 in 1 Std. -
Mi, 22.05. 3:00 0.0 l/m2 in 1 Std. -
Ortszeit Stärke Spitze Richtung
km/h Bft. km/h Grad Sektor
Mi, 22.05. 8:00 9 2 22 240° SW
Mi, 22.05. 2:00 11 2 28 250° W
Di, 21.05. 20:00 11 2 28 240° SW
Di, 21.05. 14:00 11 2 22 190° S
Di, 21.05. 8:00 7 2 15 160° S
Di, 21.05. 2:00 4 1 9 160° S
Mo, 20.05. 20:00 4 1 11 350° N
Mo, 20.05. 14:00 19 3 33 250° W
Ortszeit Stärke Spitze Richtung
km/h Bft. km/h Grad Sektor
Mi, 22.05. 9:00 7 2 19 230° SW
Mi, 22.05. 8:00 9 2 22 240° SW
Mi, 22.05. 7:00 9 2 22 260° W
Mi, 22.05. 6:00 7 2 20 240° SW
Mi, 22.05. 5:00 7 2 19 220° SW
Mi, 22.05. 4:00 7 2 19 220° SW
Mi, 22.05. 3:00 4 1 20 180° S
Ortszeit Untergrenze Bedeckung Gattung
total tief tief mittel hoch
Mi, 22.05. 8:00 - 8/8 - - - -
Mi, 22.05. 2:00 - 8/8 - - - -
Di, 21.05. 20:00 - 7/8 - - - -
Di, 21.05. 14:00 - 8/8 - - - -
Di, 21.05. 8:00 - - - - - -
Di, 21.05. 2:00 - 8/8 - - - -
Mo, 20.05. 20:00 - - - - - -
Mo, 20.05. 14:00 - 6/8 - - - -
Ortszeit Bedeckungsgrad in Achtel und Wolkenuntergrenze
Mi, 22.05. 9:00 8
Mi, 22.05. 8:00 8
Mi, 22.05. 7:00 8
Mi, 22.05. 6:00 8
Mi, 22.05. 5:00 8
Mi, 22.05. 4:00 8
Mi, 22.05. 3:00 8
Ortszeit Luftdruck NN (hPa) Tendenz (hPa in 3 Std.)
Mi, 22.05. 8:00 1014 + 1,1
Mi, 22.05. 2:00 1013 + 1,1
Di, 21.05. 20:00 1010 + 1,5
Di, 21.05. 14:00 1009 - 0,4
Di, 21.05. 8:00 1010 + 0,2
Di, 21.05. 2:00 1010 0,0
Mo, 20.05. 20:00 1008 - 0,2
Mo, 20.05. 14:00 1008 - 0,9
Ortszeit Luftdruck NN (hPa) Tendenz (hPa in 3 Std.)
Mi, 22.05. 9:00 1015 + 1,4
Mi, 22.05. 8:00 1014 + 1,1
Mi, 22.05. 7:00 1014 + 0,7
Mi, 22.05. 6:00 1013 0,0
Mi, 22.05. 5:00 1013 + 0,1
Mi, 22.05. 4:00 1013 + 0,2
Mi, 22.05. 3:00 1013 + 0,8
Ortszeit Schneehöhe (cm)
Mi, 22.05. 8:00 0
Mi, 22.05. 2:00 0
Di, 21.05. 20:00 -
Di, 21.05. 14:00 0
Di, 21.05. 8:00 -
Di, 21.05. 2:00 -
Mo, 20.05. 20:00 -
Mo, 20.05. 14:00 -
Ortszeit Schneehöhe (cm)
Mi, 22.05. 9:00 -
Mi, 22.05. 8:00 0
Mi, 22.05. 7:00 -
Mi, 22.05. 6:00 -
Mi, 22.05. 5:00 0
Mi, 22.05. 4:00 -
Mi, 22.05. 3:00 -
Link zu dieser Seite / Seite empfehlen

Das Wetter in ...